DMSP 5D-2 F13 DEB, 42263

Orbit data source: Space-Track

DMSP 5D-2 F13 DEB, 42263 is space debris in SSO originally from a launch on Fri, 24 Mar 1995 UTC launched from the Air Force Western Test Range (AFWTR). Debris objects in space refer to the collection of defunct objects orbiting the Earth. Examples of debris include non-operational satellites, rocket bodies, and fragments generated from explosions, collisions, or faulty payload assembly.

Loading next visibility...
Identifier
42263, 1995-015GD
Orbit
SSO
Country
Flag of USUS
Related business
Manufacturer
Unknown
Mission
Spacecraft
Bus & Motor
Unknown
Mass
Unknown
Launch date (UTC)
1995-03-24 (31 years ago)
Launch vehicle
Unknown
Launch site
Air Force Western Test Range (AFWTR)
Object type
Payload
Rocket body
Debris
Shape & HBR
Unknown shape, 0.1 m
Radar Cross Section
Medium (>0.1 m² and <1 m²)

Expand to show TLE details & history
Last TLE update: 1 day ago

TLE from 1 day ago
0 DMSP 5D-2 F13 DEB
1 42263U 95015GD  26256.02271181  .00001445  00000-0  95586-3 0  9990
2 42263  98.7339 104.9102 0107762 138.5227 222.4180 14.00265731580490
Epoch: 2026-09-13T00:32Z
TLE epoch observation values (Epoch: 2026-09-13T00:32:42.300Z)
Latitude
-0.00005°
Longitude
104.71063°
Altitude
953.998 km
Speed
7.345 km/s
True Right ascension
06h 59m 38s
True Declination
0° 00' 00"
Sunlit
Object was in daylight at epoch
Visualization orbit readout
Latitude
Unknown
Longitude
Unknown
Altitude
Unknown
Speed
Unknown
Apparent Right ascension
Unknown
Apparent Declination
Unknown
Sunlit
N/A
Visualization observer readout
Local Sidereal Time
02:46:53
Azimuth
Unknown
Elevation
Unknown
Doppler factor
Unknown
Orbital elements
Apogee altitude
968.384 km
Perigee altitude
811.737 km
Semi-major axis
7,268.198 km
Eccentricity
0.01078
Inclination
98.7339°
RAAN
104.9102°
Arg. of periapsis
138.5227°
True anomaly
221.59328°
Mean anomaly
222.418°
Eccentric anomaly
222.00482°
Mean motion
3.5027 °/min
Orbital period
102.78 mins
BSTAR
0.00095586
Loading maneuver chart data...
Computing Atmospheric mass density...

Documentation

Showing up to 5 results
|